TEMPEST-D (43547 NORAD) Tracking and Keplerian Element Data

This shows tracking and keplerian element data for the satellite.

Feedback or suggestion? Click here.




ElementValue
Catalog43547
NameTEMPEST-D
Epoch Orbit1876
Epoch Day317.62360446
Epoch Year2018
RAAN352.85
Inclination51.6401
Eccentricity0.0006444
Argument of Perigee36.0912
Mean Anonmoly324.0514
Mean Motion15.55744105
Decay Rate3.21E-05
L11 43547U 98067NV 18317.62360446 .00003210 00000-0 52667-4 0 9990
L22 43547 51.6401 352.8500 0006444 36.0912 324.0514 15.55744105 18762

Live tracking and technical data element details for TEMPEST-D (NORAD 43547). TEMPEST-D can be tracked NOW for your location showing map with azimuth and elevation plus other details from your city location.

Track the satellite on the map from your city or location and see movement details for azimuth, elevation, latitude, longitude, range, height, and movement on the map or in text.







IsCatalogInMostPopularTable: catalog: 43547, numindb: 38
Update: records affected: 1



GetName: 43547 TEMPEST-D

Hit Count: updated at: Fri, 16 Nov 2018 04:09:30 GMT